Location: Unspecified
(0.0000°N, 0.0000°E)
Time: 21:04:05
(UTC+01:00)

GPS 2-15 Rocket1 - Visible Passes

Search period start: 31 October 2014 00:00
Search period end: 10 November 2014 00:00
Orbit: 628 x 680 km, 19.8° (Epoch: 31 October)

Date Brightness Start Highest point End Pass type
(mag) Time Alt. Az. Time Alt. Az. Time Alt. Az.
31 Oct 5.3 05:49:38 10° NNW 05:52:28 16° NNE 05:55:17 10° NE visible
31 Oct 3.4 19:45:51 10° WSW 19:50:46 64° SSE 19:53:11 29° E visible
31 Oct 6.2 21:30:31 10° W 21:30:55 12° W 21:30:55 12° W visible
01 Nov 4.6 06:16:16 10° NW 06:20:14 27° NNE 06:24:10 10° ENE visible
01 Nov 3.3 20:13:26 10° WSW 20:18:22 67° NNW 20:19:05 58° NNE visible
02 Nov 5.1 05:03:06 17° NNE 05:03:23 18° NNE 05:06:31 10° ENE visible
02 Nov 4.6 20:41:27 10° W 20:45:00 32° NW 20:45:00 32° NW visible
03 Nov 4.4 05:29:00 21° NNW 05:31:08 30° NNE 05:35:15 10° E visible
03 Nov 3.6 19:24:18 10° W 19:29:09 59° NNW 19:33:10 15° NE visible
03 Nov 5.8 21:09:59 10° WNW 21:10:53 14° WNW 21:10:53 14° WNW visible
04 Nov 5.9 04:17:11 12° ENE 04:17:11 12° ENE 04:17:43 10° ENE visible
04 Nov 3.5 05:54:54 15° NW 05:58:45 57° NNE 06:03:22 10° E visible
04 Nov 4.4 19:52:24 10° W 19:56:47 32° NNW 19:59:03 22° NNE visible
05 Nov 4.6 04:43:04 30° NE 04:43:04 30° NE 04:46:17 10° E visible
05 Nov 5.1 20:21:04 10° WNW 20:24:31 19° NNW 20:24:55 19° N visible
06 Nov 3.2 05:08:57 58° NNW 05:09:36 66° NNE 05:14:18 10° ESE visible
06 Nov 4.6 19:03:24 10° WNW 19:07:36 28° NNW 19:11:50 10° NE visible
06 Nov 5.9 20:50:34 10° NW 20:50:46 10° NNW 20:50:46 10° NNW visible
07 Nov 6.2 03:57:06 11° E 03:57:06 11° E 03:57:18 10° E visible
07 Nov 3.3 05:34:49 29° W 05:37:11 63° SSW 05:41:52 10° ESE visible
07 Nov 5.2 19:32:11 10° WNW 19:35:21 17° NNW 19:38:32 10° NNE visible
08 Nov 5.0 04:22:56 28° ESE 04:22:56 28° ESE 04:25:13 10° ESE visible
08 Nov 4.3 06:00:39 11° W 06:04:47 33° SSW 06:09:03 10° SE visible
08 Nov 5.6 20:02:02 10° NNW 20:03:15 11° NNW 20:04:28 10° N visible
09 Nov 3.8 04:48:45 50° SSE 04:48:45 50° SSE 04:52:42 10° ESE visible
